Current Version              Previous Version:    01  02  03  04  05  06  07  08  09  10  11  12  13  14  15  16  17  18  19  20  21  22  23  24  25  26  27  28  29  30  
   31  32  33  34  35  36  37  38  39  40  41  42  43  44  45  46  47  48  49  50  51  52  53  54  55  56  57  58  59  60  

[Printable]
721
ASUS44 KLUB 251610
RWRTX
WEST TEXAS WEATHER ROUNDUP
NATIONAL WEATHER SERVICE LUBBOCK TX
1100 AM CDT SAT OCT 25 2014

NOTE: "FAIR" INDICATES FEW OR NO CLOUDS BELOW 12,000 FEET WITH NO
SIGNIFICANT WEATHER AND/OR OBSTRUCTIONS TO VISIBILITY.

TXZ004-006>008-010-012-014-016-OKZ002-251700-
TEXAS PANHANDLE/OKLAHOMA PANHANDLE

CITY           SKY/WX    TMP DP  RH WIND       PRES   REMARKS
AMARILLO       SUNNY     73  51  46 SW15G24   30.20R
BORGER         SUNNY     75  51  43 SW9       30.16S
CANADIAN       SUNNY     65  55  69 N3        30.13S
DALHART        SUNNY     69  42  37 SW7       30.20S
DUMAS            N/A     71  50  46 SW13      30.18S
GUYMON         SUNNY     68  44  42 CALM      30.13S
HEREFORD       SUNNY     73  54  51 S16       30.22S
PAMPA          SUNNY     76  48  37 SW17G23   30.18S
PERRYTON       SUNNY     72  50  46 SW10      30.14S
$$

TXZ026-029-035-045-048-251700-
SOUTHERN PANHANDLE/SOUTH PLAINS/ROLLING PLAINS

CITY           SKY/WX    TMP DP  RH WIND       PRES   REMARKS
CHILDRESS      SUNNY     77  54  44 W9        30.15S
SEMINOLE       SUNNY     69  60  71 SW5       30.23F
LUBBOCK        SUNNY     72  58  61 SW12      30.21S
PLAINVIEW      SUNNY     70  56  62 SW8       30.20S
SNYDER         SUNNY     69  61  76 SW7       30.22R
$$

TXZ052-054-060>062-072-078-127-140-154-169-251700-
PERMIAN BASIN/CONCHO VALLEY/BIG COUNTRY/EDWARDS PLATEAU

CITY           SKY/WX    TMP DP  RH WIND       PRES   REMARKS
ABILENE        SUNNY     79  59  50 SW15      30.18S
BIG SPRING     SUNNY     74  63  67 S9        30.23S
BRADY          SUNNY     77  59  53 SW10      30.20S
BROWNWOOD      SUNNY     75  61  60 SW7       30.19F
JUNCTION       SUNNY     74  60  61 SW8       30.21S
MIDLAND        SUNNY     75  57  53 S12       30.21R
ODESSA         SUNNY     74  57  55 SW13      30.22S
SAN ANGELO     SUNNY     77  58  51 SW16      30.20S
SONORA         SUNNY     73  59  60 S8G15     30.26S
SWEETWATER     SUNNY     76  59  56 SW14      30.23S
WINK           SUNNY     72  57  59 S7        30.19S
$$

TXZ055-058-074-075-080-082-251700-
FAR WEST/SOUTHWEST MOUNTAINS/TRANS PECOS

CITY           SKY/WX    TMP DP  RH WIND       PRES   REMARKS
ALPINE         SUNNY     75  50  42 SW7       30.35S
DRYDEN           N/A     71  63  75 E3        30.20R
EL PASO        SUNNY     67  49  52 CALM      30.26R
FORT STOCKTON  SUNNY     77  55  46 SW10      30.21S
GUADALUPE PASS SUNNY     63  47  55 SW9       30.35R
MARFA          SUNNY     66  54  63 S3        30.35S
PECOS          SUNNY     66  58  77 CALM      30.20S
PRESIDIO       FAIR      73  55  52 CALM      30.24S
$$

TXZ014-016-019-021>030-083-251700
TEXAS TECH WEST TEXAS MESONET/TEXAS PANHANDLE/NORTHERN SOUTH PLAINS

CITY           SKY/WX    TMP DP  RH WIND       PRES   REMARKS
ABERNATHY 5ENE   N/A     70  58  64 SW10      30.23S
AMARILLO 9NNE    N/A     74  52  46 SW13      30.18S
AMARILLO 7SSE    N/A     75  51  43 SW15      30.21S
AMHERST 1NE      N/A     75  53  45 S12       30.22S
BOOTLEG 11WNW    N/A     72  47  40 SW13      30.25S
CANADIAN 6E      N/A     71  54  55 NW2       30.12F
CAPROCK CYN SP   N/A     79  51  37 SW16      30.17S
CHILDRESS 2NNE   N/A     78  51  38 W7        30.14S
CLARENDON 2WSW   N/A     77  50  38 SW12      30.17S
CLAUDE 12SW      N/A     73  52  47 SW9       30.20S
DIMMITT 2NE      N/A     72  51  48 S14       30.22S
FLOYDADA 2NNE    N/A     71  58  63 SW9       30.21S
FRIONA 2NE       N/A     70  51  50 SW9       30.24S
GOODLETT 3W      N/A     78  52  41 SW8       30.13S
HART 3N          N/A     72  53  52 SW10      30.22F
HEREFORD 2NW     N/A     71  49  46 SW12      30.22S
MCLEAN 1E        N/A     82  49  32 SW9       30.15S
MEMPHIS 1NE      N/A     75  57  53 SW3       30.14F
MULESHOE 2SSW    N/A     74  51  43 SW12      30.23S
OLTON 6S         N/A     72  55  54 SW8       30.22S
PALO DURO SP     N/A     77  52  42 S14       30.21S
PAMPA 2E         N/A     75  52  43 SW14      30.17S
PLAINVIEW 1S     N/A     69  57  63 SW8       30.21S
SILVERTON 7ESE   N/A     75  54  47 SW15      30.20S
TULIA 2ENE       N/A     74  53  48 SW13      30.21S
TURKEY 2WSW      N/A     78  55  44 SW12      30.15F
UMBARGER 3NNE    N/A     74  51  45 SW18      30.21F
$$

TXZ033>036-039>041-045>048-251700
TEXAS TECH WEST TEXAS MESONET/SOUTH PLAINS

CITY           SKY/WX    TMP DP  RH WIND       PRES   REMARKS
AIKEN 3WSW       N/A     69  57  65 SW10      30.22F
ANDREWS 2NE      N/A     74  58  56 S10       30.23R
ANTON 6SSW       N/A     72  58  62 S8        30.22S
BROWNFIELD 2S    N/A     70  58  65 S9        30.22F
DENVR CTY 7WNW   N/A     70  55  59 S9        30.23F
GAIL 2ESE        N/A     71  61  70 S10       30.20S
LAMESA 2SE       N/A     71  61  72 SW5       30.23S
LEVELLAND 4S     N/A     72  56  57 S8        30.22F
LUBBOCK 3WNW     N/A     73  57  57 SW10      30.22S
MORTON 1ENE      N/A     76  54  47 S12       30.22F
ODONNELL 1N      N/A     71  56  60 S10       30.22S
PLAINS 3N        N/A     72  56  58 S8        30.24S
RALLS 1SE        N/A     73  58  58 SW8       30.22S
REESE CENTER     N/A     70  58  64 S10       30.22S
SEMINOLE 2NNE    N/A     71  58  63 S7        30.22F
SLATON 2NE       N/A     72  56  57 SW13      30.21S
SNYDER 3E        N/A     71  62  71 S9        30.20F
SUNDOWN 8SW      N/A     73  57  56 S10       30.23S
TAHOKA 3NNE      N/A     73  57  57 SW13      30.21S
WOLFFORTH 6SSW   N/A     71  60  67 S8        30.22S
$$

TXZ031-032-036>038-042>044-251700-
TEXAS TECH WEST TEXAS MESONET/ROLLING PLAINS

CITY           SKY/WX    TMP DP  RH WIND       PRES   REMARKS
ASPERMONT 3NE    N/A     76  61  59 SW10      30.17S
GRAHAM 5SSW      N/A     72  59  62 SW5       30.21S
GUTHRIE 10WSW    N/A     77  59  54 W12       30.16S
HASKELL 1NW      N/A     76  58  52 SW12      30.15F
JAYTON 1SSE      N/A     71  60  69 W6        30.18R
KNOX CITY 3NW    N/A     76  58  53 SW12      30.15F
LK A HENRY 1NW   N/A     73  60  64 SW13      30.18S
NORTHFIELD 1S    N/A     76  58  52 SW8       30.15S
ODELL 4ENE       N/A     80  54  40 SW9       30.13S
PADUCAH 10SW     N/A     81  53  38 SW13      30.15R
POST 1NE         N/A     74  57  54 SW13      30.19S
RRING SPRGS 3N   N/A     76  58  53 SW13      30.18S
SEYMOUR 3NW      N/A     76  59  55 W13       30.14S
SPUR 1W          N/A     73  58  59 W8        30.17F
WEINERT 2NNE     N/A     77  59  53 W12       30.15F
WHITE RVR 6NE    N/A     75  56  52 SW10      30.19F
$$

TXZ052-054-060>062-072-078-127-140-154-169-251700-
TEXAS TECH WEST TEXAS MESONET/PERMIAN BASIN/
CONCHO VALLEY/BIG COUNTRY/EDWARDS PLATEAU

CITY           SKY/WX    TMP DP  RH WIND       PRES   REMARKS
COYANOSA 2N      N/A     74  56  53 S3        30.20S
JUNCTION 1SSW    N/A     76  61  60 S7        30.22S
MERTZON 3NNE     N/A     76  59  55 S20       30.21S
SAN ANGELO 7NW   N/A     75  58  54 S8        30.20F
STRLNG CT 4WSW   N/A     76  59  55 S7        30.21F
ST LAWRNCE 5SW   N/A     73  56  54 S14       30.22S
SWEETWATR 11SW   N/A     76  59  56 SW12      30.22S
WALL 1E          N/A     75  58  54 S14       30.21S
$$

TXZ055-058-074-075-080-082-251700-
TEXAS TECH WEST TEXAS MESONET/FAR WEST/SOUTHWEST MOUNTAINS/TRANS PECOS

CITY           SKY/WX    TMP DP  RH WIND       PRES   REMARKS
PRSMN GAP BBNP   N/A     72  59  63 SE1       30.24S
GUADLPE MTN NP   N/A     73  41  31 W3        30.34S
$$